Time,TemperatureF,DewpointF,PressureIn,WindDirection,WindDirectionDegrees,WindSpeedMPH,WindSpeedGustMPH,Humidity,HourlyPrecipIn,Conditions,Clouds,dailyrainin,SoftwareType,DateUTC
2013-02-05 00:02:00,45.5,43.5,30.06,WSW,256,7.0,13.0,93,0.00,,,0.00,meteohub,2013-02-05 08:02:00,
2013-02-05 00:07:00,45.7,43.7,30.06,West,259,7.0,13.0,93,0.00,,,0.00,meteohub,2013-02-05 08:07:00,
2013-02-05 00:12:00,45.7,43.7,30.07,West,267,9.0,13.0,93,0.00,,,0.00,meteohub,2013-02-05 08:12:00,
2013-02-05 00:17:00,45.7,43.7,30.07,West,261,8.0,13.0,93,0.00,,,0.00,meteohub,2013-02-05 08:17:00,
2013-02-05 00:22:00,45.7,43.7,30.07,West,260,9.0,13.0,93,0.00,,,0.00,meteohub,2013-02-05 08:22:00,
2013-02-05 00:27:00,45.9,43.9,30.07,West,263,12.0,16.0,93,0.00,,,0.00,meteohub,2013-02-05 08:27:00,
2013-02-05 00:32:00,45.9,43.7,30.07,WSW,252,7.0,16.0,92,0.00,,,0.00,meteohub,2013-02-05 08:32:00,
2013-02-05 00:37:00,45.9,43.7,30.07,WSW,258,10.0,16.0,92,0.00,,,0.00,meteohub,2013-02-05 08:37:00,
2013-02-05 00:42:00,45.9,43.7,30.06,West,261,8.0,16.0,92,0.00,,,0.00,meteohub,2013-02-05 08:42:00,
2013-02-05 00:47:00,45.9,43.7,30.06,West,261,8.0,14.0,92,0.00,,,0.00,meteohub,2013-02-05 08:47:00,
2013-02-05 00:52:00,45.9,43.7,30.06,West,268,8.0,14.0,92,0.00,,,0.00,meteohub,2013-02-05 08:52:00,
2013-02-05 00:57:00,45.9,43.7,30.06,West,266,8.0,14.0,92,0.00,,,0.00,meteohub,2013-02-05 08:57:00,
2013-02-05 01:02:00,45.9,43.7,30.06,West,267,9.0,13.0,92,0.00,,,0.00,meteohub,2013-02-05 09:02:00,
2013-02-05 01:07:00,45.9,43.7,30.06,West,261,7.0,13.0,92,0.00,,,0.00,meteohub,2013-02-05 09:07:00,
2013-02-05 01:12:00,45.9,43.7,30.06,West,263,6.0,12.0,92,0.00,,,0.00,meteohub,2013-02-05 09:12:00,
2013-02-05 01:17:00,45.9,43.7,30.06,West,265,7.0,12.0,92,0.00,,,0.00,meteohub,2013-02-05 09:17:00,
2013-02-05 01:22:00,45.9,43.9,30.06,West,268,7.0,12.0,93,0.00,,,0.00,meteohub,2013-02-05 09:22:00,
2013-02-05 01:27:00,45.9,43.9,30.06,West,271,7.0,12.0,93,0.00,,,0.00,meteohub,2013-02-05 09:27:00,
2013-02-05 01:32:00,45.9,43.9,30.06,West,276,5.0,11.0,93,0.00,,,0.00,meteohub,2013-02-05 09:32:00,
2013-02-05 01:37:00,45.9,43.9,30.06,West,276,6.0,13.0,93,0.00,,,0.00,meteohub,2013-02-05 09:37:00,
2013-02-05 01:42:00,45.7,43.7,30.06,West,280,8.0,13.0,93,0.00,,,0.00,meteohub,2013-02-05 09:42:00,
2013-02-05 01:47:00,45.7,43.7,30.06,West,269,9.0,13.0,93,0.00,,,0.00,meteohub,2013-02-05 09:47:00,
2013-02-05 01:52:00,45.7,43.7,30.06,West,269,7.0,13.0,93,0.00,,,0.00,meteohub,2013-02-05 09:52:00,
2013-02-05 01:57:00,45.5,43.5,30.06,West,273,6.0,13.0,93,0.00,,,0.00,meteohub,2013-02-05 09:57:00,
2013-02-05 02:02:00,45.5,43.5,30.06,West,274,6.0,11.0,93,0.00,,,0.00,meteohub,2013-02-05 10:02:00,
2013-02-05 02:07:00,45.3,43.2,30.06,WSW,255,11.0,11.0,92,0.00,,,0.00,meteohub,2013-02-05 10:07:00,
2013-02-05 02:12:00,45.1,43.0,30.06,West,268,8.0,14.0,92,0.00,,,0.00,meteohub,2013-02-05 10:12:00,
2013-02-05 02:17:00,45.1,42.6,30.06,West,270,9.0,14.0,91,0.00,,,0.00,meteohub,2013-02-05 10:17:00,
2013-02-05 02:22:00,45.1,42.6,30.06,West,275,10.0,14.0,91,0.00,,,0.00,meteohub,2013-02-05 10:22:00,
2013-02-05 02:27:00,45.1,43.0,30.05,West,276,9.0,11.0,92,0.00,,,0.00,meteohub,2013-02-05 10:27:00,
2013-02-05 02:32:00,45.1,43.0,30.05,West,278,8.0,11.0,92,0.00,,,0.00,meteohub,2013-02-05 10:32:00,
2013-02-05 02:37:00,45.1,43.0,30.05,West,278,5.0,11.0,92,0.00,,,0.00,meteohub,2013-02-05 10:37:00,
2013-02-05 02:42:00,45.1,43.0,30.04,West,269,7.0,11.0,92,0.00,,,0.00,meteohub,2013-02-05 10:42:00,
2013-02-05 02:47:00,45.1,43.0,30.04,West,260,5.0,11.0,92,0.00,,,0.00,meteohub,2013-02-05 10:47:00,
2013-02-05 02:52:00,45.0,42.8,30.04,West,267,8.0,12.0,92,0.00,,,0.00,meteohub,2013-02-05 10:52:00,
2013-02-05 02:57:00,45.0,42.8,30.04,West,261,8.0,12.0,92,0.00,,,0.00,meteohub,2013-02-05 10:57:00,
2013-02-05 03:02:00,45.0,42.8,30.04,WSW,258,10.0,14.0,92,0.00,,,0.00,meteohub,2013-02-05 11:02:00,
2013-02-05 03:07:00,45.1,43.0,30.04,WSW,255,9.0,14.0,92,0.00,,,0.00,meteohub,2013-02-05 11:07:00,
2013-02-05 03:12:00,45.1,43.0,30.04,WSW,255,6.0,14.0,92,0.00,,,0.00,meteohub,2013-02-05 11:12:00,
2013-02-05 03:17:00,45.1,43.0,30.04,West,265,8.0,14.0,92,0.00,,,0.00,meteohub,2013-02-05 11:17:00,
2013-02-05 03:22:00,45.1,43.0,30.04,West,263,10.0,14.0,92,0.00,,,0.00,meteohub,2013-02-05 11:22:00,
2013-02-05 03:27:00,45.1,43.0,30.04,West,262,7.0,15.0,92,0.00,,,0.00,meteohub,2013-02-05 11:27:00,
2013-02-05 03:32:00,45.1,43.0,30.04,West,259,7.0,15.0,92,0.00,,,0.00,meteohub,2013-02-05 11:32:00,
2013-02-05 03:37:00,45.1,43.0,30.04,West,263,6.0,15.0,92,0.00,,,0.00,meteohub,2013-02-05 11:37:00,
2013-02-05 03:42:00,45.1,43.0,30.04,WSW,258,11.0,11.0,92,0.00,,,0.00,meteohub,2013-02-05 11:42:00,
2013-02-05 03:47:00,45.1,43.0,30.04,WSW,256,9.0,12.0,92,0.00,,,0.00,meteohub,2013-02-05 11:47:00,
2013-02-05 03:52:00,45.1,42.6,30.04,West,260,7.0,15.0,91,0.00,,,0.00,meteohub,2013-02-05 11:52:00,
2013-02-05 03:57:00,45.1,42.6,30.03,WSW,258,8.0,15.0,91,0.00,,,0.00,meteohub,2013-02-05 11:57:00,
2013-02-05 04:02:00,45.1,42.6,30.03,West,261,9.0,15.0,91,0.00,,,0.00,meteohub,2013-02-05 12:02:00,
2013-02-05 04:07:00,45.1,42.6,30.03,West,271,7.0,11.0,91,0.00,,,0.00,meteohub,2013-02-05 12:07:00,
2013-02-05 04:12:00,45.1,42.6,30.04,WSW,257,10.0,12.0,91,0.00,,,0.00,meteohub,2013-02-05 12:12:00,
2013-02-05 04:17:00,45.1,42.6,30.04,West,271,8.0,12.0,91,0.00,,,0.00,meteohub,2013-02-05 12:17:00,
2013-02-05 04:22:00,45.1,42.6,30.04,West,266,7.0,12.0,91,0.00,,,0.00,meteohub,2013-02-05 12:22:00,
2013-02-05 04:27:00,45.1,43.0,30.04,West,265,6.0,12.0,92,0.00,,,0.00,meteohub,2013-02-05 12:27:00,
2013-02-05 04:32:00,45.1,43.0,30.04,West,268,6.0,9.0,92,0.00,,,0.00,meteohub,2013-02-05 12:32:00,
2013-02-05 04:37:00,45.1,43.0,30.04,West,273,5.0,10.0,92,0.00,,,0.00,meteohub,2013-02-05 12:37:00,
2013-02-05 04:42:00,45.1,43.0,30.03,West,275,8.0,10.0,92,0.00,,,0.00,meteohub,2013-02-05 12:42:00,
2013-02-05 04:47:00,45.1,43.0,30.03,West,275,8.0,13.0,92,0.00,,,0.00,meteohub,2013-02-05 12:47:00,
2013-02-05 04:52:00,45.1,43.0,30.03,West,273,5.0,13.0,92,0.00,,,0.00,meteohub,2013-02-05 12:52:00,
2013-02-05 04:57:00,45.1,43.0,30.03,West,274,7.0,9.0,92,0.00,,,0.00,meteohub,2013-02-05 12:57:00,
2013-02-05 05:02:00,45.1,43.2,30.03,West,275,6.0,9.0,93,0.00,,,0.00,meteohub,2013-02-05 13:02:00,
2013-02-05 05:07:00,45.1,43.2,30.03,West,275,7.0,9.0,93,0.00,,,0.00,meteohub,2013-02-05 13:07:00,
2013-02-05 05:12:00,45.0,43.0,30.03,West,275,5.0,9.0,93,0.00,,,0.00,meteohub,2013-02-05 13:12:00,
2013-02-05 05:17:00,45.0,43.0,30.03,West,275,4.0,9.0,93,0.00,,,0.00,meteohub,2013-02-05 13:17:00,
2013-02-05 05:22:00,45.0,43.0,30.03,West,275,4.0,7.0,93,0.00,,,0.00,meteohub,2013-02-05 13:22:00,
2013-02-05 05:27:00,45.0,43.0,30.03,West,275,3.0,7.0,93,0.00,,,0.00,meteohub,2013-02-05 13:27:00,
2013-02-05 05:32:00,45.0,43.0,30.03,West,275,3.0,6.0,93,0.00,,,0.00,meteohub,2013-02-05 13:32:00,
2013-02-05 05:37:00,44.8,42.8,30.03,West,278,5.0,12.0,93,0.00,,,0.00,meteohub,2013-02-05 13:37:00,
2013-02-05 05:42:00,45.0,42.8,30.03,West,273,7.0,12.0,92,0.00,,,0.00,meteohub,2013-02-05 13:42:00,
2013-02-05 05:47:00,45.0,42.8,30.03,West,272,7.0,12.0,92,0.00,,,0.00,meteohub,2013-02-05 13:47:00,
2013-02-05 05:52:00,45.0,42.4,30.03,West,279,8.0,9.0,91,0.00,,,0.00,meteohub,2013-02-05 13:52:00,
2013-02-05 05:57:00,45.0,42.4,30.03,West,273,6.0,12.0,91,0.00,,,0.00,meteohub,2013-02-05 13:57:00,
2013-02-05 06:02:00,45.0,42.4,30.03,West,275,5.0,12.0,91,0.00,,,0.00,meteohub,2013-02-05 14:02:00,
2013-02-05 06:07:00,45.0,42.4,30.03,West,277,6.0,11.0,91,0.00,,,0.00,meteohub,2013-02-05 14:07:00,
2013-02-05 06:12:00,45.0,42.4,30.03,West,278,4.0,11.0,91,0.00,,,0.00,meteohub,2013-02-05 14:12:00,
2013-02-05 06:17:00,45.0,42.4,30.03,WNW,283,5.0,10.0,91,0.00,,,0.00,meteohub,2013-02-05 14:17:00,
2013-02-05 06:22:00,45.0,42.4,30.03,WNW,283,4.0,10.0,91,0.00,,,0.00,meteohub,2013-02-05 14:22:00,
2013-02-05 06:27:00,45.0,42.4,30.03,WNW,283,3.0,10.0,91,0.00,,,0.00,meteohub,2013-02-05 14:27:00,
2013-02-05 06:32:00,45.0,42.4,30.03,WNW,283,3.0,8.0,91,0.00,,,0.00,meteohub,2013-02-05 14:32:00,
2013-02-05 06:37:00,45.0,42.8,30.03,WNW,283,3.0,6.0,92,0.00,,,0.00,meteohub,2013-02-05 14:37:00,
2013-02-05 06:42:00,44.8,42.6,30.03,WNW,283,1.0,4.0,92,0.00,,,0.00,meteohub,2013-02-05 14:42:00,
2013-02-05 06:47:00,44.4,42.3,30.03,WNW,283,3.0,4.0,92,0.00,,,0.00,meteohub,2013-02-05 14:47:00,
2013-02-05 06:52:00,44.2,42.3,30.03,WNW,283,3.0,4.0,93,0.00,,,0.00,meteohub,2013-02-05 14:52:00,
2013-02-05 06:57:00,44.4,42.4,30.03,WNW,283,2.0,5.0,93,0.00,,,0.00,meteohub,2013-02-05 14:57:00,
2013-02-05 07:02:00,44.4,42.4,30.03,WNW,283,3.0,5.0,93,0.00,,,0.00,meteohub,2013-02-05 15:02:00,
2013-02-05 07:07:00,44.2,42.3,30.03,WNW,283,3.0,5.0,93,0.00,,,0.00,meteohub,2013-02-05 15:07:00,
2013-02-05 07:12:00,44.2,42.3,30.04,WNW,286,5.0,6.0,93,0.00,,,0.00,meteohub,2013-02-05 15:12:00,
2013-02-05 07:17:00,44.2,42.6,30.04,WNW,287,3.0,8.0,94,0.00,,,0.00,meteohub,2013-02-05 15:17:00,
2013-02-05 07:22:00,44.1,42.4,30.04,WNW,287,4.0,8.0,94,0.00,,,0.00,meteohub,2013-02-05 15:22:00,
2013-02-05 07:27:00,44.1,42.4,30.04,WNW,288,4.0,7.0,94,0.00,,,0.00,meteohub,2013-02-05 15:27:00,
2013-02-05 07:32:00,44.1,42.4,30.04,WNW,288,3.0,7.0,94,0.00,,,0.00,meteohub,2013-02-05 15:32:00,
2013-02-05 07:37:00,44.1,42.4,30.04,WNW,291,6.0,7.0,94,0.00,,,0.00,meteohub,2013-02-05 15:37:00,
2013-02-05 07:42:00,43.9,42.3,30.04,WNW,293,2.0,8.0,94,0.00,,,0.00,meteohub,2013-02-05 15:42:00,
2013-02-05 07:47:00,43.9,42.3,30.04,WNW,293,4.0,8.0,94,0.00,,,0.00,meteohub,2013-02-05 15:47:00,
2013-02-05 07:52:00,43.9,42.3,30.04,WNW,293,3.0,8.0,94,0.00,,,0.00,meteohub,2013-02-05 15:52:00,
2013-02-05 07:57:00,44.1,42.4,30.05,WNW,293,3.0,6.0,94,0.00,,,0.00,meteohub,2013-02-05 15:57:00,
2013-02-05 08:02:00,44.1,42.4,30.05,WNW,293,2.0,5.0,94,0.00,,,0.00,meteohub,2013-02-05 16:02:00,
2013-02-05 08:12:00,44.2,42.6,30.05,WNW,293,3.0,5.0,94,0.00,,,0.00,meteohub,2013-02-05 16:12:00,
2013-02-05 08:17:00,44.2,42.6,30.05,WNW,293,4.0,5.0,94,0.00,,,0.00,meteohub,2013-02-05 16:17:00,
2013-02-05 08:22:00,44.4,42.8,30.05,WNW,293,4.0,6.0,94,0.00,,,0.00,meteohub,2013-02-05 16:22:00,
2013-02-05 08:27:00,44.6,43.0,30.06,WNW,293,6.0,7.0,94,0.00,,,0.00,meteohub,2013-02-05 16:27:00,
2013-02-05 08:32:00,44.6,43.0,30.06,WNW,293,4.0,7.0,94,0.00,,,0.00,meteohub,2013-02-05 16:32:00,
2013-02-05 08:37:00,44.8,43.2,30.06,WNW,293,5.0,7.0,94,0.00,,,0.00,meteohub,2013-02-05 16:37:00,
2013-02-05 08:42:00,44.8,43.2,30.06,WNW,293,4.0,7.0,94,0.00,,,0.00,meteohub,2013-02-05 16:42:00,
2013-02-05 08:47:00,44.8,43.2,30.06,WNW,293,4.0,7.0,94,0.00,,,0.00,meteohub,2013-02-05 16:47:00,
2013-02-05 08:57:00,45.0,43.3,30.06,WNW,293,4.0,7.0,94,0.00,,,0.00,meteohub,2013-02-05 16:57:00,
2013-02-05 09:02:00,45.0,43.0,30.06,WNW,293,3.0,7.0,93,0.00,,,0.00,meteohub,2013-02-05 17:02:00,
2013-02-05 09:07:00,45.1,43.5,30.06,WNW,293,5.0,7.0,94,0.00,,,0.00,meteohub,2013-02-05 17:07:00,
2013-02-05 09:12:00,45.3,43.7,30.06,WNW,287,7.0,7.0,94,0.00,,,0.00,meteohub,2013-02-05 17:12:00,
2013-02-05 09:17:00,45.5,43.5,30.06,West,280,4.0,8.0,93,0.00,,,0.00,meteohub,2013-02-05 17:17:00,
2013-02-05 09:22:00,45.5,43.5,30.06,West,280,5.0,8.0,93,0.00,,,0.00,meteohub,2013-02-05 17:22:00,
2013-02-05 09:27:00,45.7,43.7,30.06,West,279,4.0,8.0,93,0.00,,,0.00,meteohub,2013-02-05 17:27:00,
2013-02-05 09:32:00,45.7,43.7,30.06,West,277,5.0,7.0,93,0.00,,,0.00,meteohub,2013-02-05 17:32:00,
2013-02-05 09:37:00,45.9,43.9,30.06,West,277,4.0,7.0,93,0.00,,,0.00,meteohub,2013-02-05 17:37:00,
2013-02-05 09:42:00,46.0,43.9,30.06,West,275,6.0,7.0,92,0.00,,,0.00,meteohub,2013-02-05 17:42:00,
2013-02-05 09:47:00,46.2,44.2,30.06,West,275,5.0,8.0,93,0.00,,,0.00,meteohub,2013-02-05 17:47:00,
2013-02-05 09:52:00,46.2,44.1,30.06,West,275,4.0,8.0,92,0.00,,,0.00,meteohub,2013-02-05 17:52:00,
2013-02-05 09:57:00,46.6,44.4,30.07,West,275,7.0,8.0,92,0.00,,,0.00,meteohub,2013-02-05 17:57:00,
2013-02-05 10:02:00,46.8,44.6,30.07,West,279,8.0,8.0,92,0.00,,,0.00,meteohub,2013-02-05 18:02:00,
2013-02-05 10:07:00,46.8,44.2,30.07,West,279,6.0,8.0,91,0.00,,,0.00,meteohub,2013-02-05 18:07:00,
2013-02-05 10:12:00,47.1,45.0,30.07,West,277,4.0,9.0,92,0.00,,,0.00,meteohub,2013-02-05 18:12:00,
2013-02-05 10:17:00,47.1,44.4,30.07,West,263,9.0,9.0,90,0.00,,,0.00,meteohub,2013-02-05 18:17:00,
2013-02-05 10:22:00,47.1,44.6,30.07,West,262,8.0,11.0,91,0.00,,,0.00,meteohub,2013-02-05 18:22:00,
2013-02-05 10:27:00,47.5,44.8,30.07,West,273,6.0,11.0,90,0.00,,,0.00,meteohub,2013-02-05 18:27:00,
2013-02-05 10:32:00,47.7,45.0,30.07,WNW,284,7.0,11.0,90,0.00,,,0.00,meteohub,2013-02-05 18:32:00,
2013-02-05 10:42:00,47.8,45.0,30.07,West,272,6.0,11.0,90,0.00,,,0.00,meteohub,2013-02-05 18:42:00,
2013-02-05 10:52:00,48.0,45.1,30.07,West,274,10.0,10.0,90,0.00,,,0.00,meteohub,2013-02-05 18:52:00,
2013-02-05 10:57:00,48.2,45.3,30.07,West,272,10.0,12.0,90,0.00,,,0.00,meteohub,2013-02-05 18:57:00,
2013-02-05 11:02:00,48.4,45.5,30.07,West,281,10.0,13.0,90,0.00,,,0.00,meteohub,2013-02-05 19:02:00,
2013-02-05 11:07:00,48.7,45.9,30.07,West,273,10.0,13.0,90,0.00,,,0.00,meteohub,2013-02-05 19:07:00,
2013-02-05 11:12:00,48.7,45.7,30.07,West,276,10.0,14.0,89,0.00,,,0.00,meteohub,2013-02-05 19:12:00,
2013-02-05 11:17:00,48.6,45.1,30.07,WNW,288,12.0,14.0,88,0.00,,,0.00,meteohub,2013-02-05 19:17:00,
2013-02-05 11:22:00,48.9,45.9,30.07,West,265,8.0,14.0,89,0.00,,,0.00,meteohub,2013-02-05 19:22:00,
2013-02-05 11:27:00,49.3,46.2,30.06,West,259,12.0,14.0,89,0.00,,,0.00,meteohub,2013-02-05 19:27:00,
2013-02-05 11:32:00,49.6,46.2,30.06,West,276,9.0,16.0,88,0.00,,,0.00,meteohub,2013-02-05 19:32:00,
2013-02-05 11:42:00,50.2,46.4,30.06,WNW,284,9.0,16.0,87,0.00,,,0.00,meteohub,2013-02-05 19:42:00,
2013-02-05 11:47:00,50.2,46.4,30.06,West,271,9.0,16.0,87,0.00,,,0.00,meteohub,2013-02-05 19:47:00,
2013-02-05 11:52:00,50.5,46.8,30.06,West,262,13.0,17.0,87,0.00,,,0.00,meteohub,2013-02-05 19:52:00,
2013-02-05 11:57:00,50.7,46.9,30.06,WNW,284,10.0,19.0,87,0.00,,,0.00,meteohub,2013-02-05 19:57:00,
2013-02-05 12:02:00,51.3,47.5,30.06,West,261,15.0,19.0,87,0.00,,,0.00,meteohub,2013-02-05 20:02:00,
2013-02-05 12:12:00,51.6,47.5,30.05,WSW,257,15.0,19.0,86,0.00,,,0.00,meteohub,2013-02-05 20:12:00,
2013-02-05 12:17:00,51.8,48.0,30.05,West,279,10.0,19.0,87,0.00,,,0.00,meteohub,2013-02-05 20:17:00,
2013-02-05 12:22:00,51.8,47.5,30.05,WSW,252,15.0,18.0,85,0.00,,,0.00,meteohub,2013-02-05 20:22:00,
2013-02-05 12:27:00,51.6,47.5,30.05,WNW,286,10.0,20.0,86,0.00,,,0.00,meteohub,2013-02-05 20:27:00,
2013-02-05 12:32:00,52.2,48.0,30.05,West,275,15.0,20.0,86,0.00,,,0.00,meteohub,2013-02-05 20:32:00,
2013-02-05 12:37:00,52.2,48.4,30.05,West,275,14.0,20.0,87,0.00,,,0.00,meteohub,2013-02-05 20:37:00,
2013-02-05 12:42:00,52.5,48.2,30.04,West,264,17.0,20.0,85,0.00,,,0.00,meteohub,2013-02-05 20:42:00,
2013-02-05 12:47:00,52.3,48.2,30.04,West,263,13.0,20.0,86,0.00,,,0.00,meteohub,2013-02-05 20:47:00,
2013-02-05 12:52:00,52.9,49.1,30.04,WSW,250,18.0,21.0,87,0.00,,,0.00,meteohub,2013-02-05 20:52:00,
2013-02-05 13:02:00,52.5,48.2,30.04,WSW,257,19.0,23.0,85,0.01,,,0.01,meteohub,2013-02-05 21:02:00,
2013-02-05 13:07:00,52.3,48.2,30.04,WSW,242,20.0,23.0,86,0.01,,,0.01,meteohub,2013-02-05 21:07:00,
2013-02-05 13:12:00,52.2,48.0,30.04,West,267,11.0,25.0,86,0.01,,,0.01,meteohub,2013-02-05 21:12:00,
2013-02-05 13:17:00,51.8,47.7,30.04,West,267,14.0,25.0,86,0.01,,,0.01,meteohub,2013-02-05 21:17:00,
2013-02-05 13:22:00,51.4,47.5,30.04,West,267,17.0,25.0,86,0.01,,,0.01,meteohub,2013-02-05 21:22:00,
2013-02-05 13:27:00,51.4,47.7,30.03,WNW,290,21.0,27.0,87,0.01,,,0.01,meteohub,2013-02-05 21:27:00,
2013-02-05 13:32:00,51.6,47.5,30.03,WSW,254,19.0,27.0,86,0.01,,,0.01,meteohub,2013-02-05 21:32:00,
2013-02-05 13:37:00,51.4,47.5,30.03,West,265,16.0,27.0,86,0.01,,,0.01,meteohub,2013-02-05 21:37:00,
2013-02-05 13:42:00,51.6,47.5,30.03,NW,305,13.0,24.0,86,0.01,,,0.01,meteohub,2013-02-05 21:42:00,
2013-02-05 13:47:00,52.0,48.2,30.03,West,261,15.0,24.0,87,0.01,,,0.01,meteohub,2013-02-05 21:47:00,
2013-02-05 13:52:00,52.2,48.0,30.03,West,269,13.0,25.0,86,0.01,,,0.01,meteohub,2013-02-05 21:52:00,
2013-02-05 13:57:00,52.5,48.4,30.03,West,277,16.0,25.0,86,0.01,,,0.01,meteohub,2013-02-05 21:57:00,
2013-02-05 14:02:00,52.5,48.2,30.03,West,277,19.0,25.0,85,0.00,,,0.01,meteohub,2013-02-05 22:02:00,
2013-02-05 14:07:00,52.7,48.6,30.03,West,263,12.0,22.0,86,0.00,,,0.01,meteohub,2013-02-05 22:07:00,
2013-02-05 14:12:00,52.7,48.4,30.03,West,268,18.0,21.0,85,0.00,,,0.01,meteohub,2013-02-05 22:12:00,
2013-02-05 14:17:00,52.5,47.8,30.03,West,275,14.0,23.0,84,0.00,,,0.01,meteohub,2013-02-05 22:17:00,
2013-02-05 14:22:00,52.9,48.6,30.03,West,275,16.0,24.0,85,0.00,,,0.01,meteohub,2013-02-05 22:22:00,
2013-02-05 14:27:00,53.1,48.9,30.03,WSW,258,16.0,24.0,86,0.00,,,0.01,meteohub,2013-02-05 22:27:00,
2013-02-05 14:32:00,53.2,48.6,30.03,West,267,14.0,27.0,84,0.00,,,0.01,meteohub,2013-02-05 22:32:00,
2013-02-05 14:42:00,52.9,48.7,30.02,WNW,283,10.0,24.0,86,0.00,,,0.01,meteohub,2013-02-05 22:42:00,
2013-02-05 14:47:00,53.2,49.1,30.02,WSW,254,19.0,24.0,86,0.00,,,0.01,meteohub,2013-02-05 22:47:00,
2013-02-05 14:57:00,52.5,48.4,30.03,WNW,282,22.0,30.0,86,0.00,,,0.01,meteohub,2013-02-05 22:57:00,
2013-02-05 15:02:00,52.3,48.2,30.03,West,267,13.0,30.0,86,0.00,,,0.01,meteohub,2013-02-05 23:02:00,
2013-02-05 15:12:00,52.7,48.9,30.03,West,278,22.0,25.0,87,0.00,,,0.01,meteohub,2013-02-05 23:12:00,
2013-02-05 15:17:00,52.9,48.7,30.03,West,261,26.0,26.0,86,0.00,,,0.01,meteohub,2013-02-05 23:17:00,
2013-02-05 15:22:00,53.1,48.7,30.03,WSW,252,19.0,26.0,85,0.00,,,0.01,meteohub,2013-02-05 23:22:00,
2013-02-05 15:27:00,53.1,48.9,30.03,West,279,19.0,26.0,86,0.00,,,0.01,meteohub,2013-02-05 23:27:00,
2013-02-05 15:32:00,53.1,48.9,30.03,West,273,19.0,26.0,86,0.00,,,0.01,meteohub,2013-02-05 23:32:00,
2013-02-05 15:37:00,52.9,48.7,30.03,WNW,285,19.0,24.0,86,0.00,,,0.01,meteohub,2013-02-05 23:37:00,
2013-02-05 15:42:00,53.1,48.9,30.03,WSW,242,25.0,25.0,86,0.00,,,0.01,meteohub,2013-02-05 23:42:00,
2013-02-05 15:47:00,53.2,49.1,30.03,West,264,17.0,25.0,86,0.00,,,0.01,meteohub,2013-02-05 23:47:00,
2013-02-05 15:57:00,52.9,48.7,30.04,West,263,16.0,25.0,86,0.00,,,0.01,meteohub,2013-02-05 23:57:00,
2013-02-05 16:02:00,52.5,48.4,30.04,West,265,16.0,24.0,86,0.00,,,0.01,meteohub,2013-02-06 00:02:00,
2013-02-05 16:07:00,52.3,48.6,30.04,West,261,17.0,24.0,87,0.00,,,0.00,meteohub,2013-02-06 00:07:00,
2013-02-05 16:12:00,52.3,48.6,30.04,WSW,256,13.0,21.0,87,0.00,,,0.00,meteohub,2013-02-06 00:12:00,
2013-02-05 16:17:00,52.3,48.6,30.04,West,274,12.0,21.0,87,0.00,,,0.00,meteohub,2013-02-06 00:17:00,
2013-02-05 16:27:00,51.6,48.2,30.04,West,281,13.0,22.0,88,0.00,,,0.00,meteohub,2013-02-06 00:27:00,
2013-02-05 16:32:00,51.4,48.0,30.04,WSW,255,13.0,22.0,88,0.00,,,0.00,meteohub,2013-02-06 00:32:00,
2013-02-05 16:37:00,51.1,48.0,30.04,West,281,12.0,20.0,89,0.00,,,0.00,meteohub,2013-02-06 00:37:00,
2013-02-05 16:42:00,50.9,47.8,30.04,West,261,14.0,20.0,89,0.00,,,0.00,meteohub,2013-02-06 00:42:00,
2013-02-05 16:47:00,50.7,47.8,30.04,West,264,10.0,20.0,90,0.00,,,0.00,meteohub,2013-02-06 00:47:00,
2013-02-05 16:52:00,50.5,47.7,30.04,WSW,257,12.0,19.0,90,0.00,,,0.00,meteohub,2013-02-06 00:52:00,
2013-02-05 16:57:00,50.5,47.7,30.04,West,263,12.0,19.0,90,0.00,,,0.00,meteohub,2013-02-06 00:57:00,
2013-02-05 17:02:00,50.4,47.8,30.04,West,280,16.0,17.0,91,0.00,,,0.00,meteohub,2013-02-06 01:02:00,
2013-02-05 17:07:00,50.4,47.8,30.04,West,273,13.0,19.0,91,0.00,,,0.00,meteohub,2013-02-06 01:07:00,
2013-02-05 17:12:00,50.0,47.5,30.04,West,270,8.0,19.0,91,0.00,,,0.00,meteohub,2013-02-06 01:12:00,
2013-02-05 17:17:00,49.6,47.1,30.04,West,268,12.0,19.0,91,0.00,,,0.00,meteohub,2013-02-06 01:17:00,
2013-02-05 17:22:00,49.5,46.9,30.04,West,261,12.0,17.0,91,0.00,,,0.00,meteohub,2013-02-06 01:22:00,
2013-02-05 17:27:00,49.1,46.6,30.04,West,265,13.0,17.0,91,0.00,,,0.00,meteohub,2013-02-06 01:27:00,
2013-02-05 17:32:00,48.6,46.4,30.04,West,266,11.0,17.0,92,0.00,,,0.00,meteohub,2013-02-06 01:32:00,
2013-02-05 17:37:00,48.4,46.2,30.04,West,273,8.0,16.0,92,0.00,,,0.00,meteohub,2013-02-06 01:37:00,
2013-02-05 17:42:00,48.0,46.0,30.05,West,259,14.0,16.0,93,0.00,,,0.00,meteohub,2013-02-06 01:42:00,
2013-02-05 17:47:00,47.8,45.9,30.05,West,274,10.0,16.0,93,0.00,,,0.00,meteohub,2013-02-06 01:47:00,
2013-02-05 17:57:00,47.7,46.0,30.05,West,270,11.0,16.0,94,0.00,,,0.00,meteohub,2013-02-06 01:57:00,
2013-02-05 18:02:00,47.5,45.9,30.05,West,261,9.0,16.0,94,0.00,,,0.00,meteohub,2013-02-06 02:02:00,
2013-02-05 18:07:00,47.1,45.5,30.05,West,260,10.0,14.0,94,0.00,,,0.00,meteohub,2013-02-06 02:07:00,
2013-02-05 18:12:00,46.9,45.3,30.05,West,266,8.0,14.0,94,0.00,,,0.00,meteohub,2013-02-06 02:12:00,
2013-02-05 18:17:00,46.8,45.1,30.05,West,263,8.0,14.0,94,0.00,,,0.00,meteohub,2013-02-06 02:17:00,
2013-02-05 18:27:00,46.8,45.3,30.05,West,274,11.0,12.0,95,0.00,,,0.00,meteohub,2013-02-06 02:27:00,
2013-02-05 18:32:00,46.8,45.1,30.05,West,271,6.0,15.0,94,0.00,,,0.00,meteohub,2013-02-06 02:32:00,
2013-02-05 18:37:00,46.6,45.0,30.05,West,271,7.0,15.0,94,0.00,,,0.00,meteohub,2013-02-06 02:37:00,
2013-02-05 18:42:00,46.6,45.0,30.06,West,265,6.0,15.0,94,0.00,,,0.00,meteohub,2013-02-06 02:42:00,
2013-02-05 18:47:00,46.6,45.1,30.06,West,262,8.0,12.0,95,0.00,,,0.00,meteohub,2013-02-06 02:47:00,
2013-02-05 18:57:00,46.4,44.8,30.06,West,265,8.0,12.0,94,0.00,,,0.00,meteohub,2013-02-06 02:57:00,
2013-02-05 19:02:00,46.4,44.8,30.06,West,263,8.0,12.0,94,0.00,,,0.00,meteohub,2013-02-06 03:02:00,
2013-02-05 19:12:00,46.2,44.8,30.06,West,262,6.0,11.0,95,0.00,,,0.00,meteohub,2013-02-06 03:12:00,
2013-02-05 19:17:00,46.2,44.8,30.06,West,265,6.0,11.0,95,0.00,,,0.00,meteohub,2013-02-06 03:17:00,
2013-02-05 19:22:00,46.2,44.8,30.06,West,275,7.0,11.0,95,0.00,,,0.00,meteohub,2013-02-06 03:22:00,
2013-02-05 19:27:00,46.0,44.6,30.07,West,275,5.0,10.0,95,0.00,,,0.00,meteohub,2013-02-06 03:27:00,
2013-02-05 19:32:00,46.2,44.8,30.07,West,277,5.0,10.0,95,0.00,,,0.00,meteohub,2013-02-06 03:32:00,
2013-02-05 19:37:00,46.2,44.8,30.07,West,277,7.0,10.0,95,0.00,,,0.00,meteohub,2013-02-06 03:37:00,
2013-02-05 19:42:00,46.0,44.6,30.08,West,277,8.0,9.0,95,0.00,,,0.00,meteohub,2013-02-06 03:42:00,
2013-02-05 19:47:00,45.9,44.4,30.08,West,275,9.0,9.0,95,0.00,,,0.00,meteohub,2013-02-06 03:47:00,
2013-02-05 19:52:00,45.9,44.4,30.08,West,275,5.0,9.0,95,0.00,,,0.00,meteohub,2013-02-06 03:52:00,
2013-02-05 19:57:00,45.7,44.4,30.08,West,275,4.0,9.0,95,0.00,,,0.00,meteohub,2013-02-06 03:57:00,
2013-02-05 20:02:00,45.7,44.4,30.08,West,275,7.0,9.0,95,0.00,,,0.00,meteohub,2013-02-06 04:02:00,
2013-02-05 20:12:00,45.1,43.9,30.09,West,275,5.0,9.0,95,0.00,,,0.00,meteohub,2013-02-06 04:12:00,
2013-02-05 20:22:00,45.0,43.9,30.09,West,275,5.0,7.0,96,0.00,,,0.00,meteohub,2013-02-06 04:22:00,
2013-02-05 20:27:00,45.0,43.9,30.09,West,275,5.0,6.0,96,0.00,,,0.00,meteohub,2013-02-06 04:27:00,
2013-02-05 20:32:00,45.0,43.9,30.09,West,275,5.0,7.0,96,0.00,,,0.00,meteohub,2013-02-06 04:32:00,
2013-02-05 20:37:00,45.0,43.9,30.09,West,275,5.0,8.0,96,0.00,,,0.00,meteohub,2013-02-06 04:37:00,
2013-02-05 20:47:00,44.6,43.5,30.09,West,275,5.0,8.0,96,0.00,,,0.00,meteohub,2013-02-06 04:47:00,
2013-02-05 20:52:00,44.4,43.3,30.09,West,275,6.0,7.0,96,0.00,,,0.00,meteohub,2013-02-06 04:52:00,
2013-02-05 20:57:00,44.6,43.5,30.09,West,275,5.0,8.0,96,0.00,,,0.00,meteohub,2013-02-06 04:57:00,
2013-02-05 21:02:00,44.2,43.0,30.09,West,275,5.0,8.0,95,0.00,,,0.00,meteohub,2013-02-06 05:02:00,
2013-02-05 21:07:00,44.2,43.2,30.09,West,275,7.0,8.0,96,0.00,,,0.00,meteohub,2013-02-06 05:07:00,
2013-02-05 21:12:00,44.1,42.8,30.10,West,275,5.0,7.0,95,0.00,,,0.00,meteohub,2013-02-06 05:12:00,
2013-02-05 21:17:00,44.1,42.8,30.10,West,279,6.0,9.0,95,0.00,,,0.00,meteohub,2013-02-06 05:17:00,
2013-02-05 21:22:00,44.2,43.0,30.10,WNW,283,7.0,9.0,95,0.00,,,0.00,meteohub,2013-02-06 05:22:00,
2013-02-05 21:27:00,44.2,43.0,30.10,WNW,284,6.0,11.0,95,0.00,,,0.00,meteohub,2013-02-06 05:27:00,
2013-02-05 21:37:00,44.4,43.2,30.10,WNW,285,5.0,11.0,95,0.00,,,0.00,meteohub,2013-02-06 05:37:00,
2013-02-05 21:42:00,44.4,43.2,30.10,WNW,285,4.0,9.0,95,0.00,,,0.00,meteohub,2013-02-06 05:42:00,
2013-02-05 21:47:00,44.4,43.2,30.10,WNW,285,4.0,9.0,95,0.00,,,0.00,meteohub,2013-02-06 05:47:00,
2013-02-05 21:52:00,44.2,43.0,30.10,WNW,285,5.0,8.0,95,0.00,,,0.00,meteohub,2013-02-06 05:52:00,
2013-02-05 21:57:00,44.2,43.0,30.10,WNW,285,4.0,7.0,95,0.00,,,0.00,meteohub,2013-02-06 05:57:00,
2013-02-05 22:02:00,44.1,42.8,30.10,WNW,285,5.0,7.0,95,0.00,,,0.00,meteohub,2013-02-06 06:02:00,
2013-02-05 22:07:00,44.2,43.0,30.10,WNW,285,5.0,7.0,95,0.00,,,0.00,meteohub,2013-02-06 06:07:00,
2013-02-05 22:12:00,44.1,42.8,30.11,WNW,285,3.0,7.0,95,0.00,,,0.00,meteohub,2013-02-06 06:12:00,
2013-02-05 22:17:00,44.1,42.8,30.11,WNW,285,3.0,7.0,95,0.00,,,0.00,meteohub,2013-02-06 06:17:00,
2013-02-05 22:22:00,44.1,42.8,30.11,WNW,285,3.0,6.0,95,0.00,,,0.00,meteohub,2013-02-06 06:22:00,
2013-02-05 22:27:00,43.9,42.6,30.10,WNW,285,3.0,5.0,95,0.00,,,0.00,meteohub,2013-02-06 06:27:00,
2013-02-05 22:32:00,43.5,42.3,30.10,WNW,285,3.0,4.0,95,0.00,,,0.00,meteohub,2013-02-06 06:32:00,
2013-02-05 22:37:00,43.3,42.1,30.10,WNW,285,3.0,4.0,95,0.00,,,0.00,meteohub,2013-02-06 06:37:00,
2013-02-05 22:42:00,43.3,42.1,30.11,WNW,285,3.0,4.0,95,0.00,,,0.00,meteohub,2013-02-06 06:42:00,
2013-02-05 22:47:00,43.3,42.1,30.11,WNW,285,4.0,6.0,95,0.00,,,0.00,meteohub,2013-02-06 06:47:00,
2013-02-05 22:52:00,43.2,41.9,30.11,WNW,285,4.0,6.0,95,0.00,,,0.00,meteohub,2013-02-06 06:52:00,
2013-02-05 22:57:00,43.2,41.9,30.11,WNW,285,6.0,6.0,95,0.00,,,0.00,meteohub,2013-02-06 06:57:00,
2013-02-05 23:02:00,43.2,41.9,30.11,WNW,285,3.0,6.0,95,0.00,,,0.00,meteohub,2013-02-06 07:02:00,
2013-02-05 23:07:00,43.0,41.4,30.11,WNW,285,4.0,6.0,94,0.00,,,0.00,meteohub,2013-02-06 07:07:00,
2013-02-05 23:12:00,43.2,41.5,30.12,WNW,285,6.0,6.0,94,0.00,,,0.00,meteohub,2013-02-06 07:12:00,
2013-02-05 23:17:00,43.3,41.7,30.12,WNW,285,6.0,7.0,94,0.00,,,0.00,meteohub,2013-02-06 07:17:00,
2013-02-05 23:22:00,43.3,41.7,30.12,WNW,285,6.0,8.0,94,0.00,,,0.00,meteohub,2013-02-06 07:22:00,
2013-02-05 23:27:00,43.0,41.2,30.12,WNW,285,5.0,8.0,93,0.00,,,0.00,meteohub,2013-02-06 07:27:00,
2013-02-05 23:32:00,43.0,41.2,30.12,WNW,285,5.0,8.0,93,0.00,,,0.00,meteohub,2013-02-06 07:32:00,
2013-02-05 23:37:00,43.0,41.2,30.12,WNW,285,4.0,6.0,93,0.00,,,0.00,meteohub,2013-02-06 07:37:00,
2013-02-05 23:42:00,43.0,41.2,30.12,WNW,285,4.0,6.0,93,0.00,,,0.00,meteohub,2013-02-06 07:42:00,
2013-02-05 23:47:00,42.8,41.0,30.12,WNW,285,4.0,6.0,93,0.00,,,0.00,meteohub,2013-02-06 07:47:00,
2013-02-05 23:52:00,42.6,40.8,30.12,WNW,285,3.0,7.0,93,0.00,,,0.00,meteohub,2013-02-06 07:52:00,
2013-02-05 23:57:00,42.6,40.8,30.12,WNW,285,6.0,7.0,93,0.00,,,0.00,meteohub,2013-02-06 07:57:00,